Regional Weather Roundup
Issued by NWS

Home | Current Version | Previous Version | Graphics & Text | Print | Product List | Glossary On
Versions: 1 2 3 4 5 6 7 8 9 10 11 12 13 14 15 16 17 18 19 20 21 22 23 24 25 26 27 28 29 30 31 32 33 34 35 36 37 38 39 40 41 42 43 44 45 46 47 48 49 50
000
ASUS45 KBOU 092007
RWRCO

WEATHER ROUNDUP FOR COLORADO
NATIONAL WEATHER SERVICE DENVER/BOULDER CO
100 PM MST TUE FEB 09 2016

NOTE: "FAIR" INDICATES FEW OR NO CLOUDS BELOW 12000 FEET WITH NO
SIGNIFICANT WEATHER AND/OR OBSTRUCTIONS TO VISIBILITY.

COZ001>005-013-030-031-092100-
...NORTHWEST COLORADO...

CITY           SKY/WX    TMP DP  RH WIND       PRES   REMARKS
CRAIG          MIX PCPN  21  15  78 SW5       30.50F WCI  15
HAYDEN         SUNNY     21  12  68 CALM      30.49F
MEEKER         SUNNY     32  20  61 NE3       30.48F
MOUNT WERNER   NOT AVBL
STEAMBOAT SPGS SUNNY     26  16  67 CALM      30.49F
WALDEN         SUNNY     23  12  63 CALM      30.46F
$$

COZ006>008-011-092100-
...WEST CENTRAL VALLEYS...

CITY           SKY/WX    TMP DP  RH WIND       PRES   REMARKS
GRAND JUNCTION SUNNY     37  25  61 E7        30.48F
MONTROSE       SUNNY     40  19  43 CALM      30.50F
EAGLE          SUNNY     30  16  55 CALM      30.53F
RIFLE          SUNNY     36  19  50 CALM      30.49F
DELTA          SUNNY     42  24  47 SE3       30.50F
NUCLA          SUNNY     41  23  48 CALM      30.48F
$$

COZ017>023-064>068-092100-
...SOUTHWEST COLORADO...

CITY           SKY/WX    TMP DP  RH WIND       PRES   REMARKS
DURANGO        SUNNY     37  22  54 NE3       30.40F
CORTEZ         SUNNY     41  28  60 S8        30.40F
PAGOSA SPRINGS SUNNY     46  11  23 CALM      30.41F
TELLURIDE      SUNNY     45  10  23 SW7       30.48F
WOLF CREEK PAS SUNNY     36  -4  18 N8        30.55S
$$

COZ009-010-012-014-032>034-037-058>063-092100-
...CENTRAL COLORADO...

CITY           SKY/WX    TMP DP  RH WIND       PRES   REMARKS
ASPEN          SUNNY     35  18  49 NW7       30.46F WCI  29
BUENA VISTA    SUNNY     50  12  21 NW18G28   30.34F
COPPER MTN     SUNNY     34   5  29 NW20G26   30.50F WCI  22
BERTHOUD PASS  FAIR      21  10  63 N25G38    30.46F WCI   4
COTTONWOOD PAS SUNNY     50  -8   9 CALM      30.42F
GUNNISON       CLOUDY    10   5  79 E5        30.56F WCI   2
KREMMLING      CLOUDY    21   9  58 CALM      30.54F
LEADVILLE      SUNNY     40   5  23 N17G29    30.44F
MONARCH PASS   SUNNY     30  10  43 SW10      30.60F WCI  21
SALIDA         NOT AVBL
SUNLIGHT       SUNNY     34  16  47 NW7         N/A  WCI  28
WILKERSON PASS SUNNY     37   3  23 N7        30.46F
$$

COZ069>075-092100-
...SAN LUIS VALLEY/SANGRE DE CRISTO MOUNTAINS...

CITY           SKY/WX    TMP DP  RH WIND       PRES   REMARKS
ALAMOSA        SUNNY     42  15  33 VRB3      30.41F
LA VETA PASS   SUNNY     41  14  33 SW7       30.42F
SAGUACHE       SUNNY     41  21  45 S9        30.42F
$$

COZ035-036-038>040-092100-
...NORTHERN COLORADO FRONT RANGE...

CITY           SKY/WX    TMP DP  RH WIND       PRES   REMARKS
DENVER INTL AP MOSUNNY   46  27  47 S8        30.30S
DMNS CITY PARK   N/A     55  14  19 E7        30.28S
AURORA         MOSUNNY   48  25  41 SE10      30.30F
FRONT RANGE AP MOSUNNY   45  27  49 MISG      30.31F
ERIE MUNI ARPT SUNNY     51  24  35 E7        30.29S
BOULDER MUN AP SUNNY     50  23  34 NW3       30.29R
CENTENNIAL     MOSUNNY   48  19  31 S7        30.30F
BROOMFIELD     SUNNY     55  19  24 E5        30.30F
FORT COLLINS   SUNNY     46  21  36 S7        30.29F
LONGMONT       SUNNY     53  23  31 CALM      30.31R
$$

COZ041-046-047-076>085-087-088-092100-
...PIKES PEAK/PALMER DIVIDE AND SOUTHERN FOOTHILLS...

CITY           SKY/WX    TMP DP  RH WIND       PRES   REMARKS
COLO. SPRINGS  MOSUNNY   46  18  32 E5        30.33F
A. F. ACADEMY  SUNNY     46  17  30 S9        30.31F
SCHRIEVER AFB  NOT AVBL
ELLICOTT       NOT AVBL
FALCON         NOT AVBL
FORT CARSON    SUNNY     47  19  33 CALM      30.31F
LIMON          SUNNY     43  24  47 W5        30.30F
MONUMENT HILL  SUNNY     41  19  42 S3        30.34F
TRINIDAD       SUNNY     60  11  14 N12       30.29F
$$

COZ042>045-048>051-090-091-092100-
...NORTHEAST COLORADO...

CITY           SKY/WX    TMP DP  RH WIND       PRES   REMARKS
GREELEY ARPT   SUNNY     41  28  60 SE6       30.29F
AKRON          SUNNY     43  31  62 NW15      30.26F
BURLINGTON     SUNNY     43  28  55 NW14      30.26F
WRAY           CLOUDY    47  30  52 NW17      30.24F
STERLING       SUNNY     46  32  57 NW15G21   30.25F
HOLYOKE        CLOUDY    46  30  53 NW14G20   30.23F
FORT MORGAN    SUNNY     42  27  55 W10       30.29F
$$

COZ086-089-092>099-092100-
...SOUTHEAST COLORADO...

CITY           SKY/WX    TMP DP  RH WIND       PRES   REMARKS
PUEBLO         SUNNY     54  28  36 VRB3      30.30F
LA JUNTA       SUNNY     57  27  31 VRB6      30.30F
LAMAR          SUNNY     59  27  29 NW12      30.26F
SPRINGFIELD      N/A     58  22  24 N21G33    30.28F
$$



USA.gov is the U.S. government's official web portal to all federal, state and local government web resources and services.